• In Russia
  • List of Countries
  • For 7 days
  • Water Temperature
  • Satellite Maps
  • Weather Map
  • Weather Widgets
  • user-avatar
    Login

    Hourly Weather Dikhil

    Today, 19 January, Saturday

    Time Temperature Precipitation Wind Pressure Humidity
    00:00 +26°C° 0 mm 4 mps 719 mmHg 63%
    01:00 +26°C° 0 mm 4 mps 719 mmHg 65%
    02:00 +25°C° 0 mm 4 mps 718 mmHg 67%
    03:00 +24°C° 0 mm 3 mps 718 mmHg 70%
    04:00 +24°C° 0 mm 3 mps 719 mmHg 72%
    05:00 +22°C° 0 mm 3 mps 719 mmHg 74%
    06:00 +22°C° 0 mm 3 mps 719 mmHg 77%
    07:00 +24°C° 0 mm 3 mps 719 mmHg 71%
    08:00 +25°C° 0 mm 3 mps 720 mmHg 66%
    09:00 +26°C° 0 mm 4 mps 720 mmHg 61%
    10:00 +28°C° 0 mm 4 mps 720 mmHg 52%
    11:00 +29°C° 0 mm 4 mps 720 mmHg 44%
    12:00 +32°C° 0 mm 4 mps 720 mmHg 36%
    13:00 +33°C° 0 mm 4 mps 720 mmHg 33%
    14:00 +33°C° 0 mm 5 mps 719 mmHg 30%
    15:00 +34°C° 0 mm 5 mps 718 mmHg 28%
    16:00 +33°C° 0 mm 6 mps 718 mmHg 32%
    17:00 +32°C° 0 mm 6 mps 718 mmHg 36%
    18:00 +30°C° 0 mm 7 mps 718 mmHg 40%
    19:00 +29°C° 0 mm 6 mps 718 mmHg 45%
    20:00 +28°C° 0 mm 6 mps 719 mmHg 50%
    21:00 +27°C° 0 mm 6 mps 719 mmHg 56%
    22:00 +26°C° 0 mm 5 mps 719 mmHg 57%
    23:00 +25°C° 0 mm 5 mps 719 mmHg 58%

    Tomorrow, 20 January, Sunday

    Time Temperature Precipitation Wind Pressure Humidity
    00:00 +25°C° 0 mm 4 mps 719 mmHg 59%
    01:00 +23°C° 0 mm 4 mps 719 mmHg 62%
    02:00 +24°C° 0 mm 3 mps 719 mmHg 64%
    03:00 +22°C° 0 mm 3 mps 718 mmHg 67%
    04:00 +22°C° 0 mm 3 mps 719 mmHg 70%
    05:00 +21°C° 0 mm 3 mps 719 mmHg 74%
    06:00 +21°C° 0 mm 3 mps 719 mmHg 77%
    07:00 +22°C° 0 mm 3 mps 720 mmHg 70%
    08:00 +24°C° 0 mm 3 mps 721 mmHg 62%
    09:00 +25°C° 0 mm 4 mps 721 mmHg 55%
    10:00 +27°C° 0 mm 4 mps 721 mmHg 49%
    11:00 +29°C° 0 mm 5 mps 721 mmHg 42%
    12:00 +30°C° 0 mm 5 mps 721 mmHg 36%
    13:00 +32°C° 0 mm 5 mps 720 mmHg 36%
    14:00 +32°C° 0 mm 6 mps 720 mmHg 35%
    15:00 +33°C° 0 mm 6 mps 719 mmHg 35%
    16:00 +32°C° 0 mm 7 mps 719 mmHg 39%
    17:00 +30°C° 0 mm 7 mps 719 mmHg 42%
    18:00 +29°C° 0 mm 8 mps 719 mmHg 46%
    19:00 +28°C° 0 mm 8 mps 719 mmHg 52%
    20:00 +27°C° 0 mm 7 mps 720 mmHg 57%
    21:00 +26°C° 0 mm 7 mps 720 mmHg 62%
    22:00 +24°C° 0 mm 7 mps 720 mmHg 64%
    23:00 +24°C° 0 mm 6 mps 720 mmHg 66%

    Day after tomorrow, 21 January, Monday

    Time Temperature Precipitation Wind Pressure Humidity
    00:00 +23°C° 0 mm 6 mps 720 mmHg 68%
    01:00 +23°C° 0 mm 6 mps 720 mmHg 70%
    02:00 +22°C° 0 mm 5 mps 719 mmHg 72%
    03:00 +22°C° 0 mm 5 mps 719 mmHg 75%
    04:00 +22°C° 0 mm 5 mps 719 mmHg 77%
    05:00 +21°C° 0 mm 4 mps 719 mmHg 79%
    06:00 +21°C° 0 mm 3 mps 720 mmHg 80%
    07:00 +22°C° 0 mm 4 mps 720 mmHg 73%
    08:00 +23°C° 0 mm 5 mps 721 mmHg 66%
    09:00 +26°C° 0 mm 6 mps 722 mmHg 59%
    10:00 +27°C° 0 mm 6 mps 722 mmHg 52%
    11:00 +29°C° 0 mm 6 mps 721 mmHg 45%
    12:00 +32°C° 0 mm 6 mps 721 mmHg 38%
    13:00 +32°C° 0 mm 6 mps 720 mmHg 37%
    14:00 +33°C° 0 mm 7 mps 719 mmHg 35%
    15:00 +34°C° 0 mm 7 mps 718 mmHg 34%
    16:00 +32°C° 0 mm 8 mps 718 mmHg 39%
    17:00 +31°C° 0 mm 8 mps 718 mmHg 44%
    18:00 +29°C° 0 mm 9 mps 718 mmHg 48%
    19:00 +28°C° 0 mm 9 mps 719 mmHg 53%
    20:00 +27°C° 0 mm 9 mps 719 mmHg 58%
    21:00 +26°C° 0 mm 9 mps 720 mmHg 63%
    22:00 +24°C° 0 mm 8 mps 719 mmHg 66%
    23:00 +24°C° 0 mm 7 mps 719 mmHg 69%

    22 January, Tuesday

    Time Temperature Precipitation Wind Pressure Humidity
    00:00 +23°C° 0 mm 7 mps 719 mmHg 72%
    01:00 +23°C° 0 mm 6 mps 719 mmHg 74%
    02:00 +23°C° 0 mm 5 mps 718 mmHg 76%
    03:00 +22°C° 0 mm 4 mps 718 mmHg 77%
    04:00 +22°C° 0 mm 4 mps 718 mmHg 79%
    05:00 +22°C° 0 mm 3 mps 718 mmHg 81%
    06:00 +23°C° 0 mm 2 mps 719 mmHg 83%
    07:00 +24°C° 0 mm 3 mps 720 mmHg 77%
    08:00 +25°C° 0 mm 4 mps 720 mmHg 70%
    09:00 +26°C° 0 mm 5 mps 721 mmHg 64%
    10:00 +28°C° 0 mm 6 mps 720 mmHg 57%
    11:00 +29°C° 0 mm 6 mps 720 mmHg 50%
    12:00 +32°C° 0 mm 6 mps 720 mmHg 43%
    13:00 +33°C° 0 mm 6 mps 719 mmHg 41%
    14:00 +33°C° 0 mm 7 mps 718 mmHg 39%
    15:00 +34°C° 0 mm 7 mps 717 mmHg 38%
    16:00 +32°C° 0 mm 7 mps 717 mmHg 43%
    17:00 +31°C° 0 mm 8 mps 717 mmHg 49%
    18:00 +29°C° 0 mm 8 mps 717 mmHg 55%
    19:00 +28°C° 0 mm 8 mps 718 mmHg 60%
    20:00 +27°C° 0 mm 7 mps 718 mmHg 65%
    21:00 +26°C° 0 mm 7 mps 718 mmHg 70%
    22:00 +24°C° 0 mm 6 mps 718 mmHg 71%
    23:00 +24°C° 0 mm 6 mps 718 mmHg 73%

    23 January, Wednesday

    Time Temperature Precipitation Wind Pressure Humidity
    00:00 +23°C° 0 mm 5 mps 718 mmHg 74%
    01:00 +23°C° 0 mm 5 mps 717 mmHg 76%
    02:00 +22°C° 0 mm 4 mps 717 mmHg 78%
    03:00 +22°C° 0 mm 4 mps 716 mmHg 79%
    04:00 +22°C° 0 mm 4 mps 717 mmHg 81%
    05:00 +21°C° 0 mm 4 mps 717 mmHg 83%
    06:00 +21°C° 0 mm 3 mps 717 mmHg 84%
    07:00 +22°C° 0 mm 4 mps 718 mmHg 77%
    08:00 +23°C° 0 mm 5 mps 719 mmHg 70%
    09:00 +24°C° 0 mm 6 mps 720 mmHg 63%
    10:00 +27°C° 0 mm 7 mps 720 mmHg 56%
    11:00 +29°C° 0 mm 7 mps 719 mmHg 48%
    12:00 +32°C° 0 mm 8 mps 719 mmHg 40%
    13:00 +32°C° 0 mm 8 mps 718 mmHg 39%
    14:00 +33°C° 0 mm 8 mps 718 mmHg 37%
    15:00 +33°C° 0 mm 8 mps 717 mmHg 36%
    16:00 +32°C° 0 mm 8 mps 717 mmHg 40%
    17:00 +31°C° 0 mm 8 mps 717 mmHg 44%
    18:00 +28°C° 0 mm 8 mps 717 mmHg 48%
    19:00 +27°C° 0 mm 8 mps 718 mmHg 55%
    20:00 +26°C° 0 mm 7 mps 718 mmHg 61%
    21:00 +24°C° 0 mm 6 mps 719 mmHg 68%
    22:00 +24°C° 0 mm 6 mps 718 mmHg 71%
    23:00 +23°C° 0 mm 6 mps 718 mmHg 73%

    24 January, Thursday

    Time Temperature Precipitation Wind Pressure Humidity
    00:00 +23°C° 0 mm 5 mps 718 mmHg 76%
    01:00 +22°C° 0 mm 5 mps 718 mmHg 78%
    02:00 +22°C° 0 mm 4 mps 718 mmHg 79%
    03:00 +22°C° 0 mm 4 mps 717 mmHg 80%
    04:00 +21°C° 0 mm 4 mps 718 mmHg 82%
    05:00 +21°C° 0 mm 3 mps 718 mmHg 83%
    06:00 +21°C° 0 mm 3 mps 718 mmHg 85%
    07:00 +22°C° 0 mm 4 mps 719 mmHg 78%
    08:00 +23°C° 0 mm 5 mps 720 mmHg 71%
    09:00 +26°C° 0 mm 5 mps 720 mmHg 64%
    10:00 +27°C° 0 mm 6 mps 720 mmHg 56%
    11:00 +29°C° 0 mm 6 mps 719 mmHg 49%
    12:00 +32°C° 0 mm 6 mps 719 mmHg 41%
    13:00 +32°C° 0 mm 7 mps 718 mmHg 39%
    14:00 +33°C° 0 mm 7 mps 718 mmHg 37%
    15:00 +34°C° 0 mm 7 mps 717 mmHg 35%
    16:00 +32°C° 0 mm 8 mps 717 mmHg 39%
    17:00 +31°C° 0 mm 8 mps 717 mmHg 44%
    18:00 +29°C° 0 mm 8 mps 717 mmHg 49%
    19:00 +28°C° 0 mm 8 mps 718 mmHg 55%
    20:00 +26°C° 0 mm 7 mps 718 mmHg 61%
    21:00 +24°C° 0 mm 6 mps 719 mmHg 67%
    22:00 +24°C° 0 mm 6 mps 718 mmHg 70%
    23:00 +23°C° 0 mm 5 mps 718 mmHg 73%
    Show more